This demonstration page uses our WeatherBlox Daily Observations layout. Learn more.

Left ArrowRight Arrow

Hourly Observations for August 6, 2015

Temp ( °F °C ) Dew Point ( °F °C ) Humidity (%) Winds ( mph kmh ) Pressure ( in mb ) Visibility ( mi km ) Precip ( " mm )
12:53 am 00:53 Mostly Cloudy 74 23.3 56 13.3 54 54 NNW 6 9 29.87 1011 8 13 0.00 0.00
1:53 am 01:53 Mostly Cloudy 74 23.3 57 13.9 56 56 NNW 5 7 29.85 1011 7 11 0.00 0.00
2:53 am 02:53 Partly Cloudy 71 21.7 56 13.3 59 59 N 3 6 29.85 1011 7 11 0.00 0.00
3:53 am 03:53 Cloudy with Haze 70 21.1 56 13.3 61 61 N 3 6 29.85 1011 6 10 0.00 0.00
4:53 am 04:53 Cloudy with Haze 69 20.6 56 13.3 63 63 Calm 29.85 1011 6 10 0.00 0.00
5:53 am 05:53 Cloudy 66 18.9 54 12.2 65 65 Calm 29.86 1011 7 11 0.00 0.00
6:53 am 06:53 Cloudy with Haze 65 18.3 55 12.8 70 70 Calm 29.87 1012 5 8 0.00 0.00
7:53 am 07:53 Cloudy with Haze 67 19.4 55 12.8 66 66 Calm 29.88 1012 6 10 0.00 0.00
8:53 am 08:53 Cloudy with Haze 72 22.2 54 12.2 53 53 Calm 29.88 1012 6 10 0.00 0.00
9:53 am 09:53 Mostly Cloudy with Haze 78 25.6 51 10.6 39 39 VRB 3 6 29.87 1012 5 8 0.00 0.00
10:53 am 10:53 Mostly Cloudy with Haze 84 28.9 48 8.9 29 29 N 7 11 29.86 1011 4 6 0.00 0.00
11:53 am 11:53 Mostly Cloudy with Haze 89 31.7 46 7.8 23 23 VRB 7 11 29.83 1010 3 5 0.00 0.00
12:53 pm 12:53 Mostly Cloudy with Haze 93 33.9 45 7.2 19 19 NNE 3 6 29.81 1009 3 5 0.00 0.00
1:53 pm 13:53 Mostly Cloudy with Haze 94 34.4 44 6.7 18 18 Calm 29.78 1009 3 5 0.00 0.00
2:53 pm 14:53 Cloudy with Haze 97 36.1 45 7.2 17 17 VRB 3 6 29.75 1008 3 5 0.00 0.00
3:53 pm 15:53 Cloudy with Haze 98 36.7 40 4.4 13 13 VRB 5 7 29.73 1007 3 5 0.00 0.00
4:13 pm 16:13 Cloudy with Haze 99 37.2 39 3.9 12 12 SE 3 6 29.71 1006 3 4 0.00 0.00
4:37 pm 16:37 Cloudy with Haze 100 37.8 39 3.9 12 12 Calm 29.71 1006 2 3 0.00 0.00
4:53 pm 16:53 Mostly Cloudy with Haze 99 37.2 39 3.9 12 12 S 10 17 29.71 1006 3 4 0.00 0.00
5:16 pm 17:16 Mostly Cloudy with Haze 99 37.2 31 -0.6 9 9 SSE 9 15 29.71 1006 3 5 0.00 0.00
5:53 pm 17:53 Cloudy with Haze 99 37.2 37 2.8 12 12 S 12 19 29.70 1006 3 5 0.00 0.00
6:27 pm 18:27 Cloudy with Haze 95 35 48 9 20 20 SSE 16 26 29.68 1005 3 5 0.00 0.00
6:44 pm 18:44 Cloudy with Haze 95 35 46 8 19 19 S 15 24 29.68 1005 3 5 0.00 0.00
6:53 pm 18:53 Cloudy with Haze 94 34.4 45 7.2 18 18 S 14 22 29.71 1006 3 5 0.00 0.00
7:53 pm 19:53 Partly Cloudy with Smoke 92 33.3 40 4.4 16 16 S 8 13 29.71 1006 10 16 0.00 0.00
8:53 pm 20:53 Clear 88 31.1 44 6.7 22 22 S 3 6 29.72 1006 10 16 0.00 0.00
9:53 pm 21:53 Clear 82 27.8 44 6.7 26 26 E 5 7 29.74 1007 10 16 0.00 0.00
10:53 pm 22:53 Clear 83 28.3 54 12.2 37 37 S 7 11 29.74 1007 10 16 0.00 0.00
11:53 pm 23:53 Clear 81 27.2 55 12.8 41 41 SSE 5 7 29.75 1007 10 16 0.00 0.00

Powered by AerisWeather